Powrót do katalogu

FENGYUN 1C DEB

AktywnySSO
NORAD 31051·DEBRIS·🇨🇳 China

Wystrzelony May 10, 1999 z Taiyuan Satellite Launch Center

Loading…

Następne Przeloty (najbliższe 24 godziny)

TLE

Starzejące sięSource: Space-Track

Epoka: Sep 9, 2026, 07:28 UTC

1 31051U 99025BEV 26252.31144469  .00000151  00000-0  12210-3 0  9990
2 31051  98.7906 279.0789 0053800  99.8911 260.8335 14.03178468676138

Śledź FENGYUN 1C DEB w czasie rzeczywistym z AllMySat

Download on the App Store